date,city,adminCode1,country,long,lat,year
2016-03-13,Mexico City,09,MX,-99.12766,19.42847,2016
2016-03-15,Los Angeles,CA,US,-118.24368,34.05223,2016
2016-03-16,San Francisco,CA,US,-122.41942,37.77493,2016
2016-03-17,Reno,NV,US,-119.8138,39.52963,2016
2016-03-18,Portland,OR,US,-122.67621,45.52345,2016
2016-03-19,Vancouver,02,CA,-123.11934,49.24966,2016
2016-03-20,Victoria,02,CA,-123.35155,48.4359,2016
2016-03-21,Bellingham,WA,US,-122.48822,48.75955,2016
2016-03-22,Seattle,WA,US,-122.33207,47.60621,2016
2016-03-23,Boise,ID,US,-116.20345,43.6135,2016
2016-03-24,Salt Lake City,UT,US,-111.89105,40.76078,2016
2016-03-25,Denver,CO,US,-104.9847,39.73915,2016
2016-03-26,Omaha,NE,US,-95.94043,41.25626,2016
2016-03-27,Minneapolis,MN,US,-93.26384,44.97997,2016
2016-03-28,Madison,WI,US,-89.40123,43.07305,2016
2016-03-29,Chicago,IL,US,-87.65005,41.85003,2016
2016-03-30,Detroit,MI,US,-83.04575,42.33143,2016
2016-03-31,Pittsburgh,PA,US,-79.99589,40.44062,2016
2016-04-01,Toronto,08,CA,-79.4163,43.70011,2016
2016-04-02,Buffalo,NY,US,-78.87837,42.88645,2016
2016-04-03,New Haven,CT,US,-72.92816,41.30815,2016
2016-04-04,Allston,MA,US,-71.12589,42.35843,2016
2016-04-05,New York,NY,US,-74.00597,40.71427,2016
2016-04-06,Brooklyn,NY,US,-73.94958,40.6501,2016
2016-04-07,Philadelphia,PA,US,-75.16379,39.95233,2016
2016-04-08,Washington,DC,US,-77.03637,38.89511,2016
2016-04-09,Carrboro,NC,US,-79.07529,35.91014,2016
2016-04-11,New Orleans,LA,US,-90.07507,29.95465,2016
2016-04-12,Houston,TX,US,-95.36327,29.76328,2016
2016-04-13,Dallas,TX,US,-96.80667,32.78306,2016
2016-04-14,Austin,TX,US,-97.74306,30.26715,2016
2016-04-15,El Paso,TX,US,-106.48693,31.75872,2016
2016-04-16,Phoenix,AZ,US,-112.07404,33.44838,2016
2016-04-17,San Diego,CA,US,-117.16472,32.71571,2016
2018-03-31,San Jose,CA,US,-121.89496,37.33939,2018
2018-04-01,San Francisco,CA,US,-122.41942,37.77493,2018
2018-04-02,Arcata,CA,US,-124.08284,40.86652,2018
2018-04-03,Portland,OR,US,-122.67621,45.52345,2018
2018-04-04,Bellingham,WA,US,-122.48822,48.75955,2018
2018-04-05,Vancouver,02,CA,-123.11934,49.24966,2018
2018-04-06,Seattle,WA,US,-122.33207,47.60621,2018
2018-04-07,Boise,ID,US,-116.20345,43.6135,2018
2018-04-08,Salt Lake City,UT,US,-111.89105,40.76078,2018
2018-04-09,Denver,CO,US,-104.9847,39.73915,2018
2018-04-10,Lincoln,NE,US,-96.66696,40.8,2018
2018-04-11,Kansas City,MO,US,-94.57857,39.09973,2018
2018-04-12,Minneapolis,MN,US,-93.26384,44.97997,2018
2018-04-13,Milwaukee,WI,US,-87.90647,43.0389,2018
2018-04-14,Chicago,IL,US,-87.65005,41.85003,2018
2018-04-15,Cleveland,OH,US,-81.69541,41.4995,2018
2018-04-16,Detroit,MI,US,-83.04575,42.33143,2018
2018-04-17,Toronto,08,CA,-79.4163,43.70011,2018
2018-04-18,Rochester,NY,US,-77.61556,43.15478,2018
2018-04-19,Boston,MA,US,-71.05977,42.35843,2018
2018-04-20,Hamden,CT,US,-72.89677,41.39593,2018
2018-04-21,Philadelphia,PA,US,-75.16379,39.95233,2018
2018-04-22,Brooklyn,NY,US,-73.94958,40.6501,2018
2018-04-23,Baltimore,MD,US,-76.61219,39.29038,2018
2018-04-24,Richmond,VA,US,-77.46026,37.55376,2018
2018-04-25,Asheville,NC,US,-82.55402,35.60095,2018
2018-04-26,Atlanta,GA,US,-84.38798,33.749,2018
2018-04-27,New Orleans,LA,US,-90.07507,29.95465,2018
2018-04-28,Houston,TX,US,-95.36327,29.76328,2018
2018-04-29,Austin,TX,US,-97.74306,30.26715,2018
2018-04-30,Dallas,TX,US,-96.80667,32.78306,2018
2018-05-01,Norman,OK,US,-97.43948,35.22257,2018
2018-05-02,Albuquerque,NM,US,-106.65114,35.08449,2018
2018-05-03,El Paso,TX,US,-106.48693,31.75872,2018
2018-05-04,Bisbee,AZ,US,-109.92841,31.44815,2018
2018-05-05,Phoenix,AZ,US,-112.07404,33.44838,2018
2018-05-06,Las Vegas,NV,US,-115.13722,36.17497,2018
2018-05-07,San Diego,CA,US,-117.16472,32.71571,2018
2018-05-08,Los Angeles,CA,US,-118.24368,34.05223,2018
2018-05-09,Long Beach,CA,US,-118.18923,33.76696,2018
2015-04-17,Los Angeles,CA,US,-118.24368,34.05223,2015
2015-04-18,San Francisco,CA,US,-122.41942,37.77493,2015
2015-04-20,Portland,OR,US,-122.67621,45.52345,2015
2015-04-21,Vancouver,02,CA,-123.11934,49.24966,2015
2015-04-22,Seattle,WA,US,-122.33207,47.60621,2015
2015-04-23,Boise,ID,US,-116.20345,43.6135,2015
2015-04-24,Salt Lake City,UT,US,-111.89105,40.76078,2015
2015-04-25,Denver,CO,US,-104.9847,39.73915,2015
2015-04-26,Lincoln,NE,US,-96.66696,40.8,2015
2015-04-27,Minneapolis,MN,US,-93.26384,44.97997,2015
2015-04-28,Chicago,IL,US,-87.65005,41.85003,2015
2015-04-29,Detroit,MI,US,-83.04575,42.33143,2015
2015-04-30,Cleveland Heights,OH,US,-81.55624,41.52005,2015
2015-05-01,Toronto,08,CA,-79.4163,43.70011,2015
2015-05-02,Montreal,10,CA,-73.58781,45.50884,2015
2015-05-03,Allston,MA,US,-71.12589,42.35843,2015
2015-05-04,New Haven,CT,US,-72.92816,41.30815,2015
2015-05-05,Philadelphia,PA,US,-75.16379,39.95233,2015
2015-05-06,Brooklyn,NY,US,-73.94958,40.6501,2015
2015-05-07,New York,NY,US,-74.00597,40.71427,2015
2015-05-08,Washington,DC,US,-77.03637,38.89511,2015
2015-05-09,Richmond,VA,US,-77.46026,37.55376,2015
2015-05-10,Raleigh,NC,US,-78.63861,35.7721,2015
2015-05-11,Atlanta,GA,US,-84.38798,33.749,2015
2015-05-12,New Orleans,LA,US,-90.07507,29.95465,2015
2015-05-13,Houston,TX,US,-95.36327,29.76328,2015
2015-05-14,Dallas,TX,US,-96.80667,32.78306,2015
2015-05-15,Austin,TX,US,-97.74306,30.26715,2015
2015-05-16,El Paso,TX,US,-106.48693,31.75872,2015
2015-05-17,Phoenix,AZ,US,-112.07404,33.44838,2015
2015-05-18,San Diego,CA,US,-117.16472,32.71571,2015
2017-04-06,San Diego,CA,US,-117.16472,32.71571,2017
2017-04-07,Phoenix,AZ,US,-112.07404,33.44838,2017
2017-04-08,El Paso,TX,US,-106.48693,31.75872,2017
2017-04-09,Austin,TX,US,-97.74306,30.26715,2017
2017-04-10,Dallas,TX,US,-96.80667,32.78306,2017
2017-04-11,Houston,TX,US,-95.36327,29.76328,2017
2017-04-12,New Orleans,LA,US,-90.07507,29.95465,2017
2017-04-13,Tallahassee,FL,US,-84.28073,30.43826,2017
2017-04-14,Orlando,FL,US,-81.37924,28.53834,2017
2017-04-15,Gainesville,FL,US,-82.32483,29.65163,2017
2017-04-16,Jacksonville,FL,US,-81.65565,30.33218,2017
2017-04-17,Atlanta,GA,US,-84.38798,33.749,2017
2017-04-18,Asheville,NC,US,-82.55402,35.60095,2017
2017-04-19,Carrboro,NC,US,-79.07529,35.91014,2017
2017-04-20,Richmond,VA,US,-77.46026,37.55376,2017
2017-04-21,Baltimore,MD,US,-76.61219,39.29038,2017
2017-04-22,Brooklyn,NY,US,-73.94958,40.6501,2017
2017-04-23,Philadelphia,PA,US,-75.16379,39.95233,2017
2017-04-24,Jersey City,NJ,US,-74.07764,40.72816,2017
2017-04-25,Hamden,CT,US,-72.89677,41.39593,2017
2017-04-26,Somerville,MA,US,-71.0995,42.3876,2017
2017-04-27,Montreal,10,CA,-73.58781,45.50884,2017
2017-04-28,Toronto,08,CA,-79.4163,43.70011,2017
2017-04-29,Pittsburgh,PA,US,-79.99589,40.44062,2017
2017-04-30,Cleveland,OH,US,-81.69541,41.4995,2017
2017-05-01,Detroit,MI,US,-83.04575,42.33143,2017
2017-05-02,Chicago,IL,US,-87.65005,41.85003,2017
2017-05-03,Madison,WI,US,-89.40123,43.07305,2017
2017-05-04,Minneapolis,MN,US,-93.26384,44.97997,2017
2017-05-05,Omaha,NE,US,-95.94043,41.25626,2017
2017-05-06,Denver,CO,US,-104.9847,39.73915,2017
2017-05-07,Salt Lake City,UT,US,-111.89105,40.76078,2017
2017-05-08,Boise,ID,US,-116.20345,43.6135,2017
2017-05-09,Bellingham,WA,US,-122.48822,48.75955,2017
2017-05-10,Vancouver,02,CA,-123.11934,49.24966,2017
2017-05-11,Seattle,WA,US,-122.33207,47.60621,2017
2017-05-12,Portland,OR,US,-122.67621,45.52345,2017
2017-05-13,San Francisco,CA,US,-122.41942,37.77493,2017
2017-05-14,Los Angeles,CA,US,-118.24368,34.05223,2017
2019-03-25,San Diego,CA,US,-117.16472,32.71571,2019
2019-03-26,Los Angeles,CA,US,-118.24368,34.05223,2019
2019-03-27,San Jose,CA,US,-121.89496,37.33939,2019
2019-03-28,San Francisco,CA,US,-122.41942,37.77493,2019
2019-03-29,Reno,NV,US,-119.8138,39.52963,2019
2019-03-30,Eugene,OR,US,-123.08675,44.05207,2019
2019-03-31,Portland,OR,US,-122.67621,45.52345,2019
2019-04-01,Seattle,WA,US,-122.33207,47.60621,2019
2019-04-02,Bellingham,WA,US,-122.48822,48.75955,2019
2019-04-03,Vancouver,02,CA,-123.11934,49.24966,2019
2019-04-04,Spokane,WA,US,-117.42908,47.65966,2019
2019-04-05,Bozeman,MT,US,-111.03856,45.67965,2019
2019-04-06,Salt Lake City,UT,US,-111.89105,40.76078,2019
2019-04-07,Fort Collins,CO,US,-105.08442,40.58526,2019
2019-04-08,Denver,CO,US,-104.9847,39.73915,2019
2019-04-09,Omaha,NE,US,-95.94043,41.25626,2019
2019-04-10,Des Moines,IA,US,-93.60911,41.60054,2019
2019-04-11,Minneapolis,MN,US,-93.26384,44.97997,2019
2019-04-12,Milwaukee,WI,US,-87.90647,43.0389,2019
2019-04-13,Chicago,IL,US,-87.65005,41.85003,2019
2019-04-14,Columbus,OH,US,-82.99879,39.96118,2019
2019-04-15,Windsor,08,CA,-83.01654,42.30008,2019
2019-04-16,Toronto,08,CA,-79.4163,43.70011,2019
2019-04-17,Montreal,10,CA,-73.58781,45.50884,2019
2019-04-18,Boston,MA,US,-71.05977,42.35843,2019
2019-04-19,Hamden,CT,US,-72.89677,41.39593,2019
2019-04-20,Brooklyn,NY,US,-73.94958,40.6501,2019
2019-04-21,Asbury Park,NJ,US,-74.01208,40.22039,2019
2019-04-22,New York,NY,US,-74.00597,40.71427,2019
2019-04-23,Philadelphia,PA,US,-75.16379,39.95233,2019
2019-04-24,Washington,DC,US,-77.03637,38.89511,2019
2019-04-25,Carrboro,NC,US,-79.07529,35.91014,2019
2019-04-26,Jacksonville,FL,US,-81.65565,30.33218,2019
2019-04-27,Miami,FL,US,-80.19366,25.77427,2019
2019-04-28,Orlando,FL,US,-81.37924,28.53834,2019
2019-04-29,Atlanta,GA,US,-84.38798,33.749,2019
2019-04-30,New Orleans,LA,US,-90.07507,29.95465,2019
2019-05-01,Houston,TX,US,-95.36327,29.76328,2019
2019-05-02,San Antonio,TX,US,-98.49363,29.42412,2019
2019-05-03,Austin,TX,US,-97.74306,30.26715,2019
2019-05-04,Dallas,TX,US,-96.80667,32.78306,2019
2019-05-05,Norman,OK,US,-97.43948,35.22257,2019
2019-05-06,Albuquerque,NM,US,-106.65114,35.08449,2019
2019-05-07,Tucson,AZ,US,-110.92648,32.22174,2019
2019-05-08,Phoenix,AZ,US,-112.07404,33.44838,2019
2019-05-09,Long Beach,CA,US,-118.18923,33.76696,2019
